Zurück zum Katalog

ARIANE 44LP DEB

AktivHEO
NORAD 25279·DEBRIS·🇫🇷 France

Gestartet Aug 8, 1989 von Guiana Space Centre

Loading…

Nächste Überflüge (nächste 24 Stunden)

TLE

AktuellSource: Space-Track

Epoche: Sep 14, 2026, 11:58 UTC

1 25279U 89062E   26257.49926757  .00000726  00000-0  16299-2 0  9995
2 25279   7.6872 351.1888 7007596 251.6608  25.4250  2.56027063266310

Verfolge ARIANE 44LP DEB in Echtzeit mit AllMySat

Download on the App Store